{"data":{"norad_id":64283,"intl_designator":"2025-121A","name":"HULIANWANG DIGUI-30","alt_names":[],"object_type":"PAYLOAD","status":"ACTIVE","operator":null,"country":"PRC","launch_date":"2025-06-05","launch_site_code":"TAISC","launch_vehicle":null,"mission":null,"orbit_class":"UNKNOWN","rcs_meters":null,"size_class":null,"mass_kg":null,"dimensions":null,"purposes":[],"wikipedia_slug":null,"has_3d_model":false,"image_url":null,"decayed_at":null,"tle_current":{"epoch":"2026-05-25T03:01:19.285824Z","epoch_age_seconds":58009,"freshness":"FRESH","line1":"1 64283U 25121A   26145.12591766  .00000054  00000+0  90715-4 0  9993","line2":"2 64283  86.5008  21.3430 0001722  88.4407 271.6924 13.24410306 47105","mean_motion":13.24410306,"eccentricity":0.0001722,"inclination_deg":86.5008,"raan_deg":21.343,"arg_perigee_deg":88.4407,"mean_anomaly_deg":271.6924,"bstar":9.0715e-5,"rev_number":4710,"period_min":108.72763474252,"perigee_km":1166.6215921094,"apogee_km":1169.2204544927,"semimajor_km":7546.0580233011,"source":"CELESTRAK","updated_at":"2026-05-25T13:38:04.385432Z"}}}